Miscellaneous Local Product
Issued by NWS Hastings, NE

Home | Current Version | Previous Version | Text Only | Print | Product List | Glossary On
Versions: 1 2 3 4 5 6 7 8 9 10 11 12 13 14 15 16 17 18 19 20 21 22 23 24 25 26 27 28 29 30 31 32 33 34 35 36 37 38 39 40 41 42 43 44 45 46 47 48 49 50
000
AXUS43 KGID 311002
MISGRI

GID CWA HOURLY WEATHER ROUNDUP
NATIONAL WEATHER SERVICE HASTINGS NE
500 AM CDT THU JUL 31 2014

NOTE: "FAIR" INDICATES FEW OR NO CLOUDS BELOW 12,000 FEET WITH NO
SIGNIFICANT WEATHER AND/OR OBSTRUCTIONS TO VISIBILITY.

...SOUTH CENTRAL NEBRASKA...

CITY           SKY/WX    TMP DP  RH WIND       PRES   REMARKS
GRAND ISLAND   PTCLDY    60  54  80 W6        30.14S
HASTINGS       PTCLDY    61  52  72 W6        30.14S
KEARNEY        MOCLDY    61  54  77 S7        30.14F
ORD            PTCLDY    60  55  83 S6        30.10F
YORK           PTCLDY    57  55  94 MISG      30.13S
AURORA         PTCLDY    58  56  94 SW5       30.13S
LEXINGTON      MOCLDY    60  56  89 CALM      30.14F
HOLDREGE       PTCLDY    61  54  77 SW7       30.14F
HEBRON         CLEAR     53  49  87 CALM      30.13S

...NEBRASKA PANHANDLE...

CITY           SKY/WX    TMP DP  RH WIND       PRES   REMARKS
CHADRON        CLEAR     54  48  80 CALM      30.18R
ALLIANCE       PTCLDY    52  50  93 SW7       30.19F
SCOTTSBLUFF    PTCLDY    59  57  93 CALM      30.21S
SIDNEY         MOCLDY    54  52  93 W7        30.24R

...WESTERN AND NORTH CENTRAL NEBRASKA...

CITY           SKY/WX    TMP DP  RH WIND       PRES   REMARKS
VALENTINE      CLEAR     57  49  74 W8        30.08S
AINSWORTH      CLEAR     60  56  86 SW6       30.08S
ONEILL         MOCLDY    63  59  88 SE8       30.09F
BROKEN BOW     MOCLDY    55  54  96 CALM      30.12F
IMPERIAL       CLOUDY    59  57  93 W7        30.19F
NORTH PLATTE   MOCLDY    55  54  96 NW5       30.15F FOG
MCCOOK         PTCLDY    60  58  92 W7        30.17S

...EASTERN NEBRASKA...

CITY           SKY/WX    TMP DP  RH WIND       PRES   REMARKS
NORFOLK        MOCLDY    58  55  90 CALM      30.10S
SO SIOUX CITY  CLEAR     56  54  93 E5        30.10S
TEKAMAH        CLEAR     54  50  86 CALM      30.11R
ALBION         PTCLDY    61  54  77 CALM      30.11F
OMAHA EPPLEY   PTCLDY    62  56  80 SE3       30.11S
OFFUTT AFB     CLEAR     54  54 100 CALM      30.10S
MILLARD        PTCLDY    59  57  94 CALM      30.10F
LINCOLN        PTCLDY    55  53  93 CALM      30.12S
NEBRASKA CITY  PTCLDY    60  55  84 W6        30.11S
BEATRICE       CLEAR     54  53  96 CALM      30.12S
FALLS CITY     CLEAR     57  54  89 W5        30.11S

...NORTHERN KANSAS...

CITY           SKY/WX    TMP DP  RH WIND       PRES   REMARKS
GOODLAND       PTCLDY    57  54  89 W7        30.23F
HILL CITY      CLEAR     56  52  86 W3        30.16F
NORTON         SUNNY     55  50  82 SW6       30.15S
PHILLIPSBURG   CLEAR     59  55  88 NW6       30.15F
SMITH CENTER   CLEAR     57  54  88 NW3       30.15S
HAYS           CLEAR     57  52  82 CALM      30.16S
RUSSELL        CLEAR     58  56  93 SW6       30.14S
CONCORDIA      PTCLDY    56  54  93 CALM      30.13S
SALINA         CLEAR     58  54  86 CALM      30.13F
TOPEKA         PTCLDY    57  55  93 CALM      30.11S



USA.gov is the U.S. government's official web portal to all federal, state and local government web resources and services.